sat.trackr.live / text

‹ back to catalog

STARLINK-34946

NORAD 65367 · 2025-190S

PAYLOAD ACTIVE UNKNOWN

§ Identity

Operator
Country
US
Launch date
2025-08-28
Launch site
AFETR
Launch vehicle
Mass (kg)
RCS (m²)

Purposes: comms

External: N2YO · Heavens-Above · Gunter

§ Orbital elements

Epoch: 2026-05-25T03:56:38.283072Z

Period
93.90 min
Inclination
53.1589°
Eccentricity
0.0001361
Mean motion
15.33573029 rev/d
Perigee alt
464.2 km
Apogee alt
466.1 km
Semi-major
6,843.3 km
B*
4.3329e-4
RAAN
172.9702°
Arg perigee
91.9841°
Mean anomaly
268.1317°
Rev number
4,146

§ Raw data

STARLINK-349461 65367U 25190S   26145.16433198  .00013914  00000+0  43329-3 0  99982 65367  53.1589 172.9702 0001361  91.9841 268.1317 15.33573029 41462

JSON: /api/v1/satellites/65367 · /tle

For live sub-satellite position, see the globe view (requires WebGL).

§ Visibility from observer

Set your observer location to see the next 7 days of passes ≥ 10°. The values pass through the URL so the page stays shareable.

No JS? Fill the form by hand. The geolocation button needs JavaScript.